This is the latest recevied weather packets stored in our database for station/object CT2IRJ-11. If no packets are shown the sender has not sent any weather packets the latest 10 day(s).
| Time | Temp. | Humidity | Pressure | Rain* | Wind** | Luminosity | Snow |
|---|---|---|---|---|---|---|---|
| 1777538310 | 14.44° C | 90% | 1016.6 hPa | 0 mm | - | 124 W/m² | - |
| 1777538010 | 14.44° C | 90% | 1016.6 hPa | 0 mm | - | 108 W/m² | - |
| 1777537709 | 14.44° C | 90% | 1016.6 hPa | 0 mm | - | 103 W/m² | - |
| 1777537410 | 14.44° C | 90% | 1016.6 hPa | 0 mm | - | 97 W/m² | - |
| 1777537110 | 13.89° C | 90% | 1016.6 hPa | 0 mm | - | 90 W/m² | - |
| 1777536810 | 13.89° C | 90% | 1016.3 hPa | 0 mm | - | 79 W/m² | - |
| 1777536509 | 13.89° C | 90% | 1016.3 hPa | 0 mm | - | 66 W/m² | - |
| 1777536210 | 13.89° C | 91% | 1016.3 hPa | 0 mm | - | 56 W/m² | - |
| 1777535909 | 13.89° C | 91% | 1016.6 hPa | 0 mm | - | 58 W/m² | - |
| 1777535610 | 13.89° C | 91% | 1016.3 hPa | 0 mm | - | 62 W/m² | - |
| 1777535309 | 13.89° C | 91% | 1016.3 hPa | 0 mm | - | 66 W/m² | - |
| 1777535009 | 13.33° C | 91% | 1016.3 hPa | 0 mm | - | 72 W/m² | - |
| 1777534710 | 13.33° C | 91% | 1015.9 hPa | 0 mm | - | 67 W/m² | - |
| 1777534410 | 13.33° C | 91% | 1015.9 hPa | 0 mm | - | 60 W/m² | - |
| 1777534111 | 13.33° C | 92% | 1016.3 hPa | 0 mm | - | 59 W/m² | - |
| 1777533810 | 13.33° C | 92% | 1015.9 hPa | 0.25 mm | - | 52 W/m² | - |
| 1777533510 | 13.33° C | 92% | 1015.9 hPa | 0.25 mm | - | 44 W/m² | - |
| 1777533209 | 12.78° C | 92% | 1015.6 hPa | 0.25 mm | - | 35 W/m² | - |
| 1777532910 | 12.78° C | 92% | 1015.6 hPa | 0.25 mm | - | 29 W/m² | - |
| 1777532611 | 12.78° C | 92% | 1015.9 hPa | 0.25 mm | - | 32 W/m² | - |
| 1777532310 | 12.78° C | 92% | 1015.6 hPa | 0.25 mm | - | 32 W/m² | - |
| 1777532009 | 12.78° C | 92% | 1015.6 hPa | 0.25 mm | - | 27 W/m² | - |
| 1777531709 | 12.78° C | 92% | 1015.6 hPa | 0.25 mm | - | 23 W/m² | - |
| 1777531409 | 12.78° C | 92% | 1015.9 hPa | 0.25 mm | - | 15 W/m² | - |
| 1777531110 | 12.78° C | 92% | 1015.6 hPa | 0.25 mm | - | 9 W/m² | - |
* Rain latest hour (hover to see other rain measurements)
** Current wind speed in m/s (hover to see current wind gust speed)